Content
SEND FEEDBACK

Daily
Averages
Monthly
Summary
France

RENNES, FRANCE


Home > Europe > France
Elevation: 121 feet     Latitude: 48 04N     Longitude: 001 43W

WEATHER
 
SELECT A DAY
Number of Records: 236,069;   Date Range: 7/1/96 - 7/30/14
 
SHARE

PRINT THIS DATA

[ ← Previous Day ]
WEATHER ALMANAC - FEBRUARY 8, 2013
[ Next Day → ]
[ °C ]   °F
Weather ElementAverageHighLow
Temperature39.6 °F44.6 °F (1:00 pm)35.6 °F (8:30 am)
Dewpoint34.2 °F37.4 °F (12:30 am)30.2 °F (5:30 pm)
Humidity81.6 %100 % (1:30 am)52 % (1:00 pm)
Barometer30.10 in30.21 in (9:30 pm)29.98 in (1:00 am)
Wind Speed7.5 mph15 mph (2:30 pm)
Weather ElementAverage
Visibility7.7 mi
Wind DirectionSSW (215.5 °)

Weather ElementTotal
Precipitation---
Heating Degree Days24.9 (Base 65)
Averaged from 51 records on February 8, 2013
WEATHER CONDITIONS BREAKOUT
WIND DIRECTION BREAKOUT
WEATHER BY HOUR - FEBRUARY 8, 2013
[ °C ]   °F
Local TimeTemperatureDewpointHumidityBarometerVisibilityWind DirectionWind SpeedGust SpeedPrecipitationEventsConditions
12:30 AM39.2 °F37.4 °F93 %30.01 in5.0 miSouth (190°)4.6 mphRainLight Rain
1:00 AM38.0 °F37.0 °F93 %30.01 in6.0 miSouth (190°)4.6 mphRainLight Rain
1:00 AM39.2 °F37.4 °F93 %29.98 in5.6 miSouth (190°)4.6 mphRainLight Rain
1:30 AM37.4 °F37.4 °F100 %29.98 in6.2 miSouth (170°)5.8 mphRainLight Rain
2:00 AM37.4 °F37.4 °F100 %29.98 in3.1 miSSE (160°)4.6 mphOvercast
2:30 AM37.4 °F37.4 °F100 %29.98 inSE (130°)3.5 mphRainLight Rain
3:00 AM37.4 °F37.4 °F100 %29.98 in5.6 miESE (120°)4.6 mphRainLight Rain
3:30 AM37.4 °F37.4 °F100 %29.98 in5.0 miEast (80°)6.9 mphRainLight Rain
4:00 AM37.4 °F35.6 °F93 %29.98 in6.2 miENE (70°)6.9 mphRainLight Rain
4:30 AM37.4 °F35.6 °F93 %30.01 in6.2 miENE (70°)5.8 mphRainLight Rain
5:00 AM37.4 °F35.6 °F93 %30.01 in6.2 miNNE (20°)5.8 mphOvercast
5:30 AM37.4 °F35.6 °F93 %30.04 in6.2 miNNE (20°)4.6 mphLight Drizzle
6:00 AM37.4 °F35.6 °F93 %30.04 in6.2 miNorth (360°)5.8 mphRainLight Rain
6:30 AM37.4 °F35.6 °F93 %30.04 in6.2 miNorth (360°)8.1 mphRainLight Rain
7:00 AM37.0 °F35.0 °F91 %30.08 in34.0 miNorth (350°)8.1 mphClear
7:00 AM37.4 °F35.6 °F93 %30.06 in6.2 miNorth (350°)8.1 mphOvercast
7:30 AM37.4 °F35.6 °F93 %30.06 in6.2 miNorth (360°)5.8 mphOvercast
8:00 AM37.4 °F35.6 °F93 %30.06 in6.2 miNNW (340°)4.6 mphMostly Cloudy
8:30 AM35.6 °F33.8 °F93 %30.09 in6.2 miNW (320°)3.5 mph
9:00 AM35.6 °F33.8 °F93 %30.09 in6.2 miNNW (340°)4.6 mphPartly Cloudy
9:30 AM37.4 °F35.6 °F93 %30.09 in6.2 miNorth (350°)4.6 mph
10:00 AM39.2 °F35.6 °F87 %30.12 in6.2 miNorth (350°)8.1 mph
10:30 AM41.0 °F35.6 °F81 %30.12 in6.2 miNorth (360°)10.4 mphPartly Cloudy
11:00 AM42.8 °F35.6 °F76 %30.12 in6.2 miNNE (20°)11.5 mphScattered Clouds
11:30 AM42.8 °F35.6 °F76 %30.12 in6.2 miNorth (10°)11.5 mphMostly Cloudy
12:00 PM42.8 °F33.8 °F70 %30.12 in6.2 miNorth (10°)13.8 mphOvercast
12:30 PM42.8 °F32.0 °F66 %30.12 in6.2 miNorth (10°)10.4 mphMostly Cloudy
1:00 PM44.0 °F32.0 °F52 %30.15 in28.0 miNNE (20°)12.7 mphClear
1:00 PM44.6 °F32.0 °F61 %30.12 in6.2 miNNE (20°)12.7 mphMostly Cloudy
1:30 PM44.6 °F32.0 °F61 %30.12 in6.2 miNorth (10°)12.7 mphMostly Cloudy
2:00 PM42.8 °F32.0 °F66 %30.12 in6.2 miNorth (10°)12.7 mphMostly Cloudy
2:30 PM44.6 °F32.0 °F61 %30.12 in6.2 miNorth (350°)15.0 mphMostly Cloudy
3:00 PM42.8 °F32.0 °F66 %30.12 in6.2 miNorth (360°)12.7 mphOvercast
3:30 PM42.8 °F32.0 °F66 %30.12 in6.2 miNorth (350°)12.7 mphOvercast
4:00 PM42.8 °F32.0 °F66 %30.12 in6.2 miNorth (350°)11.5 mph
4:30 PM44.6 °F32.0 °F61 %30.12 in6.2 miNorth (10°)8.1 mph
5:00 PM42.8 °F32.0 °F66 %30.15 in6.2 miNorth (350°)10.4 mphOvercast
5:30 PM42.8 °F30.2 °F61 %30.15 in6.2 miNorth (360°)8.1 mphOvercast
6:00 PM41.0 °F30.2 °F65 %30.15 in6.2 miNorth (360°)9.2 mph
6:30 PM41.0 °F32.0 °F70 %30.15 in6.2 miNNW (340°)6.9 mphOvercast
7:00 PM41.0 °F33.0 °F62 %30.19 in37.0 miNNW (340°)5.8 mphClear
7:00 PM41.0 °F32.0 °F70 %30.18 in6.2 miNNW (340°)5.8 mphOvercast
7:30 PM39.2 °F33.8 °F81 %30.18 in6.2 miNNW (340°)8.1 mphOvercast
8:00 PM39.2 °F33.8 °F81 %30.18 in6.2 miNNW (340°)8.1 mphOvercast
8:30 PM39.2 °F33.8 °F81 %30.18 in6.2 miNNW (330°)5.8 mphOvercast
9:00 PM39.2 °F33.8 °F81 %30.18 in6.2 miNW (320°)4.6 mphOvercast
9:30 PM37.4 °F33.8 °F87 %30.21 in6.2 miVariable3.5 mphOvercast
10:00 PM37.4 °F33.8 °F87 %30.21 in6.2 miCalmMostly Cloudy
10:30 PM37.4 °F33.8 °F87 %30.21 in6.2 miSW (230°)2.3 mphScattered Clouds
11:00 PM35.6 °F32.0 °F87 %30.21 in6.2 miWest (280°)4.6 mph
11:30 PM35.6 °F33.8 °F93 %30.21 in6.2 miWest (280°)5.8 mph
Hourly data recorded from LFRN, located miles away from Rennes, France







STORIES FROM OUR PARTNERS